Location: Newark
(3.0500°N, 36.0167°E)
Time: 15:28:20
(UTC+00:00)

A-11 Canister half - Pass Details

Date: 31 August 2019
Orbit: 1527 x 1682 km, 47.3° (Epoch: 22 September)

Event Time Altitude Azimuth Distance (km) Brightness Sun altitude
Rises 13:54:28 0° 341° (NNW) 4,921 12.0 25.6°
Reaches altitude 10° 13:58:27 10° 353° (N) 3,931 11.4 24.6°
Maximum altitude 14:06:23 26° 46° (NE) 2,851 10.3 22.7°
Drops below altitude 10° 14:14:10 10° 98° (E) 3,877 10.6 20.8°
Sets 14:18:00 0° 110° (ESE) 4,842 11.0 19.8°
